Weather History for Stevens Point, WI

Change the Weather History Date:

Thursday, June 6, 2013

  Actual Average Record
Temperature  
Mean Temperature 50 °F -  
Max Temperature 52 °F 75 °F 90 °F (1952)
Min Temperature 48 °F 52 °F 38 °F (1954)
Degree Days  
Heating Degree Days 16    
Moisture  
Dew Point 48 °F    
Average Humidity 93    
Maximum Humidity 98    
Minimum Humidity 81    
Precipitation  
Precipitation 0.19 in - - ()
Sea Level Pressure  
Sea Level Pressure 30.00 in    
Wind  
Wind Speed 7 mph (ENE)    
Max Wind Speed 12 mph    
Max Gust Speed -    
Visibility 9 miles    
Events Rain    
Averages and records for this station are not official NWS values.
T = Trace of Precipitation, MM = Missing Value Source: NWS Daily Summary

Daily Weather History Graph

Daily Weather History Graph

Search for Another Location

Airport:

Trip Planner

Search our weather history database for the weather conditions in past years. The results will help you decide how hot, cold, wet, or windy it might be!

Date:

Astronomy

Jun. 06, 2013 Rise Set
Actual Time 5:14 AM CDT 8:40 PM CDT
Civil Twilight 4:37 AM CDT 9:16 PM CDT
Nautical Twilight 3:50 AM CDT 10:04 PM CDT
Astronomical Twilight 2:49 AM CDT 11:05 PM CDT
Moon 3:59 AM CDT (6/6) 6:58 PM CDT (6/6)
Length of Visible Light 16h 38m
Length of Day
15h 26m
Waning Crescent, 3% of the Moon is Illuminated
Jun 6
Waning Crescent
Jun 8
New
Jun 16
First Quarter
Jun 23
Full
Jun 29
Last Quarter

Hourly Weather History & Observations

Time (CDT) Temp. Dew Point Humidity Pressure Visibility Wind Dir Wind Speed Gust Speed Precip Events Conditions
12:15 AM 49.1 °F 47.8 °F 95% 30.01 in 10.0 mi ENE 6.9 mph - 0.01 in Rain Light Rain
12:35 AM 49.1 °F 47.8 °F 95% 30.00 in 7.0 mi East 10.4 mph - 0.02 in Rain Light Rain
12:55 AM 49.1 °F 48.2 °F 97% 30.00 in 7.0 mi East 8.1 mph - 0.03 in Rain Light Rain
1:15 AM 48.7 °F 47.8 °F 97% 30.00 in 5.0 mi East 6.9 mph - 0.05 in Rain Light Rain
1:35 AM 48.7 °F 48.2 °F 98% 30.00 in 5.0 mi East 6.9 mph - 0.09 in Rain Rain
1:55 AM 48.7 °F 48.2 °F 98% 30.00 in 7.0 mi East 5.8 mph - 0.13 in Rain Light Rain
2:15 AM 48.7 °F 48.2 °F 98% 29.99 in 5.0 mi East 5.8 mph - 0.02 in Rain Rain
2:35 AM 48.6 °F 47.7 °F 97% 29.99 in 7.0 mi East 6.9 mph - 0.02 in Rain Rain
2:55 AM 48.6 °F 47.5 °F 96% 29.99 in 10.0 mi East 9.2 mph - 0.03 in   Overcast
3:15 AM 48.4 °F 47.3 °F 96% 29.98 in 10.0 mi ENE 8.1 mph - N/A   Overcast
3:35 AM 48.4 °F 47.3 °F 96% 29.98 in 7.0 mi ENE 8.1 mph - N/A   Drizzle
3:55 AM 48.2 °F 47.3 °F 97% 29.98 in 5.0 mi East 5.8 mph - N/A   Light Drizzle
4:15 AM 48.2 °F 47.3 °F 97% 29.98 in 7.0 mi East 6.9 mph - N/A   Overcast
4:35 AM 48.2 °F 47.3 °F 97% 29.97 in 7.0 mi East 8.1 mph - N/A   Overcast
4:55 AM 48.2 °F 47.3 °F 97% 29.98 in 10.0 mi East 8.1 mph - N/A Rain Light Rain
5:15 AM 48.2 °F 47.3 °F 97% 29.98 in 7.0 mi East 6.9 mph - N/A   Drizzle
5:35 AM 48.4 °F 47.7 °F 97% 29.98 in 5.0 mi ENE 8.1 mph - N/A   Light Drizzle
5:55 AM 48.4 °F 47.7 °F 97% 29.98 in 7.0 mi East 6.9 mph - N/A   Overcast
6:15 AM 48.4 °F 47.7 °F 97% 29.98 in 4.0 mi East 8.1 mph - N/A   Overcast
6:35 AM 48.2 °F 47.5 °F 97% 29.98 in 2.0 mi East 9.2 mph - N/A   Light Drizzle
6:55 AM 48.2 °F 47.3 °F 97% 29.98 in 2.5 mi ENE 11.5 mph - N/A Rain Light Rain
7:15 AM 48.0 °F 47.3 °F 97% 29.98 in 4.0 mi ENE 11.5 mph - N/A   Overcast
7:35 AM 48.2 °F 47.3 °F 97% 29.98 in 5.0 mi ENE 9.2 mph - N/A   Overcast
7:55 AM 48.2 °F 47.3 °F 97% 29.98 in 7.0 mi East 9.2 mph - N/A   Overcast
8:15 AM 48.2 °F 47.3 °F 97% 29.98 in 10.0 mi ENE 9.2 mph - N/A   Overcast
8:35 AM 48.9 °F 47.5 °F 95% 29.98 in 10.0 mi East 8.1 mph - N/A   Overcast
8:55 AM 49.1 °F 47.8 °F 95% 29.98 in 10.0 mi East 8.1 mph - N/A   Overcast
9:15 AM 49.5 °F 48.2 °F 95% 29.99 in 10.0 mi East 10.4 mph - N/A   Overcast
9:35 AM 49.3 °F 48.0 °F 95% 29.99 in 10.0 mi ENE 11.5 mph - N/A   Overcast
9:55 AM 49.1 °F 47.8 °F 95% 29.99 in 10.0 mi ENE 9.2 mph - N/A   Overcast
10:15 AM 49.1 °F 47.5 °F 94% 30.00 in 10.0 mi East 10.4 mph - N/A   Overcast
10:35 AM 49.1 °F 47.5 °F 94% 30.00 in 10.0 mi East 8.1 mph - N/A   Overcast
10:55 AM 49.1 °F 47.7 °F 95% 30.00 in 7.0 mi ENE 8.1 mph - N/A   Overcast
11:15 AM 49.5 °F 48.0 °F 95% 30.00 in 7.0 mi ENE 9.2 mph - N/A   Overcast
11:35 AM 49.6 °F 47.5 °F 92% 29.99 in 10.0 mi East 11.5 mph - N/A   Overcast
11:55 AM 50.4 °F 47.8 °F 91% 29.99 in 10.0 mi ENE 11.5 mph - N/A   Overcast
12:15 PM 50.7 °F 48.0 °F 90% 30.00 in 10.0 mi ENE 9.2 mph - N/A   Overcast
12:35 PM 50.4 °F 47.5 °F 90% 30.00 in 10.0 mi East 9.2 mph - N/A   Overcast
12:55 PM 51.3 °F 48.4 °F 90% 30.00 in 10.0 mi East 9.2 mph - N/A   Overcast
1:15 PM 51.1 °F 47.8 °F 89% 30.00 in 10.0 mi East 8.1 mph - N/A   Overcast
1:35 PM 51.1 °F 48.0 °F 89% 30.00 in 10.0 mi East 8.1 mph - N/A   Overcast
1:55 PM 51.3 °F 48.4 °F 90% 30.00 in 10.0 mi East 6.9 mph - N/A   Overcast
2:15 PM 51.1 °F 48.6 °F 91% 30.00 in 10.0 mi ENE 5.8 mph - N/A   Overcast
2:35 PM 51.1 °F 48.7 °F 92% 30.00 in 10.0 mi East 6.9 mph - N/A   Overcast
2:55 PM 51.3 °F 48.7 °F 91% 30.00 in 10.0 mi East 8.1 mph - N/A   Overcast
3:15 PM 51.6 °F 49.1 °F 91% 30.00 in 10.0 mi East 6.9 mph - N/A   Overcast
3:35 PM 51.4 °F 48.7 °F 90% 30.00 in 10.0 mi ENE 8.1 mph - N/A   Overcast
3:55 PM 51.4 °F 48.6 °F 90% 30.00 in 10.0 mi East 6.9 mph - N/A   Overcast
4:15 PM 51.3 °F 48.6 °F 90% 30.00 in 10.0 mi ENE 10.4 mph - N/A   Overcast
4:35 PM 51.4 °F 48.2 °F 89% 30.00 in 10.0 mi ENE 8.1 mph - N/A   Overcast
4:55 PM 51.8 °F 48.2 °F 88% 30.01 in 10.0 mi ENE 6.9 mph - N/A   Overcast
5:15 PM 51.8 °F 48.2 °F 88% 30.01 in 10.0 mi NE 9.2 mph - N/A   Overcast
5:35 PM 51.8 °F 47.7 °F 86% 30.01 in 10.0 mi ENE 6.9 mph - N/A   Overcast
5:55 PM 51.8 °F 46.9 °F 83% 30.00 in 10.0 mi ENE 11.5 mph - N/A   Overcast
6:15 PM 51.1 °F 45.5 °F 81% 30.00 in 10.0 mi ENE 9.2 mph - N/A   Overcast
6:35 PM 50.9 °F 45.7 °F 82% 30.00 in 10.0 mi ENE 5.8 mph - N/A   Overcast
6:55 PM 50.5 °F 46.4 °F 86% 30.01 in 10.0 mi NE 4.6 mph - N/A   Overcast
7:15 PM 50.5 °F 46.6 °F 86% 30.01 in 10.0 mi ENE 4.6 mph - N/A   Overcast
7:35 PM 50.5 °F 46.9 °F 87% 30.01 in 10.0 mi NE 4.6 mph - N/A   Overcast
7:55 PM 50.5 °F 47.1 °F 88% 30.00 in 10.0 mi Calm Calm - N/A   Overcast
8:15 PM 50.7 °F 47.3 °F 88% 30.00 in 10.0 mi NNW 3.5 mph - N/A   Overcast
8:35 PM 50.4 °F 47.5 °F 90% 30.00 in 10.0 mi North 3.5 mph - N/A   Overcast
8:55 PM 50.2 °F 47.7 °F 91% 30.00 in 10.0 mi North 3.5 mph - N/A   Overcast
9:15 PM 50.2 °F 47.7 °F 91% 30.00 in 10.0 mi Calm Calm - N/A   Overcast
9:35 PM 50.0 °F 48.0 °F 93% 30.00 in 10.0 mi NNE 3.5 mph - N/A   Overcast
9:55 PM 50.4 °F 48.2 °F 92% 30.00 in 10.0 mi Calm Calm - N/A   Overcast
10:15 PM 50.5 °F 47.8 °F 90% 30.01 in 10.0 mi Calm Calm - N/A   Overcast
10:35 PM 50.0 °F 47.5 °F 91% 30.01 in 10.0 mi Calm Calm - N/A   Overcast
10:55 PM 49.3 °F 47.8 °F 95% 30.01 in 10.0 mi Calm Calm - N/A   Overcast
11:15 PM 49.5 °F 47.5 °F 93% 30.00 in 10.0 mi Calm Calm - N/A   Overcast
11:35 PM 49.1 °F 47.7 °F 95% 30.01 in 10.0 mi North 3.5 mph - N/A   Overcast
11:55 PM 49.1 °F 47.3 °F 93% 30.00 in 10.0 mi Calm Calm - N/A   Overcast